www.pogodaiklimat.ru

Погода и климат >> Архив погоды >> Мексика >> Tapachula City


ПОГОДА в Tapachula City

  • Прогноз погоды в Tapachula City
  • Монитор погоды в Tapachula City
  • Климат города

АРХИВ ПОГОДЫ в Tapachula City

Время (UTC), дата Ветер
(напр.,м/с)
 
Видим.   Явления Облачность Т
(С)
Тd
(С)
f
(%)
Тe
(С)
Тes
(С)
Комфортность P
(гПа)
Po
(гПа)
Тmin
(С)
Tmax
(С)
R
(мм)
R24
(мм)
S
(см)
00 14.09 СВ 2 30 км 6/3 600 м
[Cu med, cong Ac trans]
+27.6 +23.8 80 +38 +38 очень
душно
1008.7 995.4 +22.2 +35.8
03 14.09 ЮВ 2 10 км 5/0 2000 м
[Ac As]
+25.8 +24.6 93 +36 +36 очень
душно
1011.9 998.6
06 14.09 СВ 3 10 км 6/0 2000 м
[Ac As]
+25.6 +24.8 95 +36 +36 очень
душно
1012.4 999.0 +22.2 +35.8
09 14.09 В 3 10 км 6/0 2000 м
[Ac As]
+24.8 +24.3 97 +34 +34 очень
душно
1010.1 996.7
12 14.09 В 3 20 км 8/0 2000 м
[Ac As]
+24.4 +23.3 94 +33 +33 очень
душно
1010.4 996.9 +23.8 +35.8
15 14.09 Ю 1 30 км 5/0
[Ac und]
+28.9 +24.2 76 +40 +48 очень
душно
1011.7 998.2
18 14.09 ЮЗ 2 20 км 9/4 1500 м
[Sc diur, vesp Ac und]
+32.2 +24.4 63 +44 +50 опасность
перегрева
1011.1 997.7 +23.8 +32.4
21 14.09 ЮЗ 2 30 км гроза без осадков 6/1 900 м
[Cb cap]
+30.7 +25.5 74 +45 +52 опасность
перегрева
1009.3 996.0
00 15.09 ЮВ 1 25 км гроза без осадков {морось} 6/6 600 м
[Cb cap]
+27.0 +24.3 85 +38 +38 очень
душно
1008.3 995.0 4
03 15.09 С 2 10 км {гроза, дождь} 10/3 1500 м
[Sc Ac und]
+23.7 +23.1 96 +31 +31 очень
душно
1012.0 998.6 4
06 15.09 З 1 10 км {дождь} 9/4 1500 м
[Sc Ac und]
+23.6 +22.9 96 +31 +31 очень
душно
1012.7 999.2 8
09 15.09 СЗ 1 10 км зарница {дождь, морось} 10/6 900 м
[Cb cap As op]
+22.9 +22.3 96 +31 +31 очень
душно
1011.8 998.2 21
12 15.09 В 2 25 км 4/0
[Ac und]
+22.6 +22.3 98 +30 +30 очень
душно
1011.2 997.6 +22.5 21
15 15.09 СЗ 2 30 км 5/0
[Ci]
+28.4 +23.8 76 +39 +48 очень
душно
1013.0 999.4
18 15.09 СВ 2 30 км 3/0
[Ci]
+32.6 +23.4 58 +43 +63 опасность
перегрева
1011.1 997.6 +22.5 +34.6
21 15.09 ЮЗ 3 30 км 8/5 1000 м
[Cu med, cong Ac und]
+31.8 +25.1 68 +46 +48 опасность
перегрева
1008.6 995.3
00 16.09 ЮЗ 2 25 км слабая морось 9/5 600 м
[Cb cap Ac und]
+29.2 +24.1 74 +41 +41 опасность
перегрева
1009.5 996.2 0.2
03 16.09 СВ 2 15 км слабый дождь 10/5 900 м
[Cb cap Ac As]
+24.2 +22.8 92 +32 +32 очень
душно
1012.4 999.1 5
06 16.09 СВ 2 15 км 8/1 900 м
[Cb cap Ac und]
+24.0 +22.6 92 +31 +31 очень
душно
1012.2 998.8 +36.2 5
12 16.09 В 2 2500 м 5/0 2000 м
[Ac und]
+23.8 +21.8 89 +31 +31 очень
душно
1010.7 997.2 +23.5 +36.2
18 16.09 СВ 6 30 км 3/3 1500 м
[Sc diur, vesp]
+33.6 +24.8 60 +47 +53 опасность
перегрева
1011.3 997.9 +23.5 +35.0
21 16.09 СЗ 7 30 км 6/6 1500 м
[Sc]
+32.2 +25.9 69 +47 +49 опасность
перегрева
1008.8 995.5
00 17.09 С 4 30 км 6/6 600 м
[Cb cap]
+30.0 +25.6 77 +44 +44 опасность
перегрева
1009.9 996.6 +23.5 +35.8
03 17.09 З 1 15 км слабая морось {гроза} 6/6 900 м
[Cb cap]
+26.8 +24.8 89 +38 +38 очень
душно
1010.3 997.1 2
09 17.09 ЮВ 1 10 км ясно +24.6 +23.4 93 +33 +33 очень
душно
1011.2 997.8
12 17.09 Ю 1 25 км ясно +23.8 +22.7 94 +31 +31 очень
душно
1011.1 997.6 +23.4 +35.8
15 17.09 Ю 1 40 км 4/0
[Ci fib]
+28.9 +24.3 76 +40 +51 опасность
солнечного
удара
1011.9 998.4
18 17.09 ЮЗ 1 35 км 3/3 1020 м
[Cu hum]
+32.8 +24.5 62 +46 +63 опасность
перегрева
1010.3 996.9 +23.4 +33.4
21 17.09 Ю 2 30 км 5/4 1020 м
[Cu med, cong Ci fib]
+32.9 +25.3 64 +47 +53 опасность
перегрева
1008.4 995.1
00 18.09 ЮЗ 1 30 км 4/4 1000 м
[Cu med, cong]
+29.7 +25.6 79 +44 +44 опасность
перегрева
1008.5 995.3 +23.4 +35.5
03 18.09 Ю 1 10 км 5/0 1500 м
[Ac trans Ci fib]
+27.9 +25.2 85 +40 +40 очень
душно
1011.2 997.9
06 18.09 В 1 10 км ясно +26.4 +24.8 91 +38 +38 очень
душно
1011.6 998.3 +23.4 +35.5
09 18.09 СВ 1 10 км 3/0 1500 м
[Ac trans]
+25.8 +22.5 82 +34 +34 очень
душно
1010.2 996.8
12 18.09 В 1 20 км 6/3 600 м
[Cu hum Ci fib]
+24.0 +22.2 90 +31 +31 очень
душно
1011.3 997.8
15 18.09 ЮВ 2 30 км 3/0
[Ci]
+29.4 +24.0 73 +41 +50 опасность
перегрева
1012.2 998.7
18 18.09 ЮЗ 3 30 км 6/6 1000 м
[Cu med, cong]
+32.5 +23.7 60 +44 +51 опасность
перегрева
1010.7 997.3 +24.4 +34.6
21 18.09 Ю 3 30 км слабая морось 8/8 900 м
[Cb cap]
+30.4 +25.3 74 +44 +46 опасность
перегрева
1008.5 995.2 0.6
00 19.09 С 2 20 км слабая морось 8/4 600 м
[Cb cap Ac und]
+27.2 +25.3 89 +39 +39 очень
душно
1009.2 995.9 0.9
03 19.09 В 3 10 км слабая морось 8/4 1500 м
[Sc Ac As]
+26.2 +24.6 91 +37 +37 очень
душно
1010.6 997.3 0.5
06 19.09 В 2 10 км 5/1 1500 м
[Sc Ac As]
+25.7 +24.6 94 +36 +36 очень
душно
1010.8 997.4 +24.4 +35.4
09 19.09 В 2 10 км 4/0 2000 м
[Ac As]
+25.4 +24.2 93 +35 +35 очень
душно
1009.6 996.2
12 19.09 СВ 2 20 км 5/0 2000 м
[Ac As]
+24.2 +23.9 98 +33 +33 очень
душно
1010.5 997.0 +23.4 +35.4
15 19.09 Ю 1 30 км 3/0
[Ci sp]
+28.0 +25.3 85 +41 +51 опасность
перегрева
1012.1 998.6
18 19.09 З 3 25 км 9/9 1020 м
[Cu med, cong]
+32.0 +26.5 73 +49 +51 опасность
перегрева
1011.3 997.9 +23.4 +34.4
00 20.09 Ю 2 25 км слабая морось 8/8 600 м
[Cb cap]
+28.4 +25.2 83 +41 +41 опасность
перегрева
1008.4 995.6 1
03 20.09 С 2 10 км {дождь} 9/3 1500 м
[Sc As op]
+25.0 +23.1 89 +33 +33 очень
душно
1011.0 997.7 2
06 20.09 СВ 1 10 км 6/0
[Ac und]
+24.9 +22.8 88 +33 +33 очень
душно
1010.7 997.3 +34.4 2
09 20.09 В 1 10 км 6/0
[Ac und]
+24.2 +22.4 90 +32 +32 очень
душно
1009.6 996.2
12 20.09 В 1 35 км 5/0
[Ac und Ci fib]
+23.5 +21.8 90 +30 +30 очень
душно
1010.2 996.7 +23.3 +34.4
15 20.09 СЗ 2 35 км 4/0
[Ci fib]
+28.8 +23.5 73 +39 +48 очень
душно
1011.5 998.0
18 20.09 З 3 30 км 4/1 1000 м
[Cb calv Ci fib]
+33.1 +23.5 57 +44 +58 опасность
перегрева
1010.5 997.1 +23.3 +34.6
21 20.09 З 2 10 км 8/5 900 м
[Cu hum Ac trans]
+33.8 +24.6 59 +47 +50 опасность
перегрева
1008.3 995.0

 

Местоположение метеостанции Tapachula City (Мексика): широта 14.92 долгота -92.25 высота над уровнем моря 118 м.

В архиве по умолчанию представлена погода в Tapachula City за последнюю неделю. Архивные данные за месяц целиком и за предыдущие месяцы, начиная с января 2011 года, Вы можете получить, выбрав интересующий диапазон дат из раскрывающегося списка и нажав кнопку "Ввод!".


*Определитесь, кто Вы:
робот инопланетянин человек

Внимание! Время в таблицах - всемирное. Для получения местного времени необходимо прибавить поправку, которая в Tapachula City равна -6 ч.

Смотрите также архив погоды в соседних городах и на ближайших метеорологических станциях:

Погода в Huehuetenango (Гватемала) (96 км)
Погода в Comitan (Мексика) (148 км)
Погода в San Jose (Гватемала) (191 км)
Погода в Guatemala (Гватемала) (191 км)
Погода в Sn. Cristobal Las Casas (Мексика) (208 км)
Погода в Tuxtla Gutierrez (Мексика) (224 км)
Погода в Arriaga (Мексика) (229 км)
Погода в Nueva Ocotepeque (Гондурас) (335 км)
Погода в Flores (Гватемала) (337 км)
Погода в Salina Cruz (Мексика) (343 км)

Пояснения к столбцам:

Ветер - указаны скорость ветра в м/с - средняя за 10 мин, порывы в срок и между сроками (в фигурных скобках) и направление, откуда дует ветер: С - северный, СВ - северо-восточный, В - восточный, ЮВ - юго-восточный, Ю - южный, ЮЗ - юго-западный, З - западный, СЗ - северо-западный.
Видимость - горизонтальная дальность видимости в метрах или километрах. При видимости от 1 до 10 км при отсутствии осадков обычно наблюдается дымка, при ухудшении видимости до 1 км и менее - туман. В сухую погоду видимость может ухудшаться дымом, пылью или мглою.
Явления - указаны атмосферные явления, наблюдавшиеся в срок или в последний час перед сроком; фигурными скобками обозначены явления, наблюдавшиеся между сроками (за 1-3 часа до срока); квадратными скобками обозначены град или гололедные отложения с указанием их диаметра в мм.
Облачность - указаны через наклонную черту общая и нижняя облачность в баллах и высота нижней границы облаков в метрах; квадратными скобками обозначены формы облаков: Ci - перистые, Cs - перисто-слоистые, Cc - перисто-кучевые, Ac - высококучевые, As - высокослоистые, Sc - слоисто-кучевые, Ns - слоисто-дождевые, Cu - кучевые, Cb - кучево-дождевые. Подробнее классификацию облаков см. в Атласе облаков (PDF).
T - Температура воздуха - температура, измеренная на высоте 2 м над землей.
Td - Температура точки росы - температура, при понижении до которой содержащийся в воздухе водяной пар достигнет насыщения.
f - Относительная влажность воздуха - влажноcть воздуха, измеренная на высоте 2 м над землей.
Te - Эффективная температура - температура, которую ощущает одетый по сезону человек в тени. Характеристика душности погоды. При расчете учитывается влияние влажности воздуха и скорости ветра на теплоощущения человека.
Tes - Эффективная температура на солнце - температура, которую ощущает человек, с поправкой на солнечный нагрев. Характеристика знойности погоды. Зависит от высоты солнца над горизонтом, облачности и скорости ветра. Ночью, в пасмурную погоду, а также при ветре 12 м/с и более поправка равна нулю.
P - Атмосферное давление - приведенное к уровню моря атмосферное давление.
Po - Атмосферное давление - измеренное на уровне метеостанции атмосферное давление.
Tmin - Минимальная температура - минимум температуры воздуха на высоте 2 м над землей.
Tmax - Максимальная температура - максимум температуры воздуха на высоте 2 м над землей.
R - Количество осадков - Количество выпавших осадков за период времени, мм. При наведении курсора мыши на число - период времени, за который выпало указанное количество осадков.
R24 - Количество осадков - Количество выпавших осадков за 24 часа, мм.
S - Снежный покров - Высота снежного покрова, см. При наведении курсора мыши на число - состояние снежного покрова и степень покрытия местности в баллах.